Date String (YYYY-MM-DD hh:mm:ss) UTC,Instrument flags,Ambient pressure (hPa),Sample flow (lpm),Bypass flow (lpm),Sample temperature (°C),Ambient temperature (°C),ASC tube jacket temperature (°C),LED temperature (°C),Box temperature (°C),Sample RH (%),Span deviation,Mass concentration (μg/m³),Mass concentration (μg/m³),Mass concentration (μg/m³)
DateTimeUTC,F1_M11,P_M11,Q1_M11,Q2_M11,T1_M11,T2_M11,T3_M11,T4_M11,T5_M11,U1_M11,ZSPAN_M11,X0_M11,X2_M11,X1_M11
2022-09-10 14:00:00,,0832.6,5.00,0.00,28.2,26.5,00.0,36.9,30.0,25.2,0000.0,0005.95,0004.19,0004.04
2022-09-10 14:01:00,,0832.6,5.00,0.00,28.2,26.4,00.0,36.9,30.0,25.3,0000.0,0005.79,0004.13,0004.00
2022-09-10 14:02:00,,0832.7,5.00,0.00,28.1,26.5,00.0,36.9,30.0,25.3,0000.0,0005.76,0004.10,0003.97
2022-09-10 14:03:00,,0832.6,5.00,0.00,28.1,26.5,00.0,36.9,30.0,25.3,0000.0,0005.78,0004.11,0003.97
2022-09-10 14:04:00,,0832.7,5.00,0.00,28.1,26.5,00.0,36.9,29.9,25.3,0000.0,0005.84,0004.14,0004.00
2022-09-10 14:05:00,,0832.7,5.00,0.00,28.1,26.5,00.0,36.9,29.9,25.4,0000.0,0005.78,0004.15,0004.02
2022-09-10 14:06:00,,0832.7,5.00,0.00,28.1,26.5,00.0,36.9,29.9,25.4,0000.0,0005.81,0004.19,0004.04
2022-09-10 14:07:00,,0832.7,5.00,0.00,28.1,26.4,00.0,36.9,29.9,25.2,0000.0,0005.92,0004.23,0004.07
2022-09-10 14:08:00,,0832.7,5.00,0.00,28.1,26.4,00.0,36.9,29.9,25.3,0000.0,0005.88,0004.25,0004.10
2022-09-10 14:09:00,,0832.7,5.01,0.00,28.1,26.4,00.0,36.9,29.9,25.2,0000.0,0005.91,0004.29,0004.13
2022-09-10 14:10:00,,0832.7,5.00,0.00,28.1,26.4,00.0,36.8,29.9,25.3,0000.0,0006.04,0004.34,0004.17
2022-09-10 14:11:00,,0832.7,5.00,0.00,28.0,26.3,00.0,36.8,29.8,25.4,0000.0,0006.21,0004.39,0004.21
2022-09-10 14:12:00,,0832.7,4.99,0.00,28.0,26.2,00.0,36.8,29.8,26.6,0000.0,0006.56,0004.49,0004.28
2022-09-10 14:13:00,,0832.6,5.00,0.00,28.0,26.1,00.0,36.8,29.8,26.0,0000.0,0006.71,0004.55,0004.34
2022-09-10 14:14:00,,0832.7,5.00,0.00,28.0,26.1,00.0,36.8,29.7,25.7,0000.0,0006.79,0004.59,0004.38
2022-09-10 14:15:00,,0832.7,5.00,0.00,27.9,26.1,00.0,36.8,29.7,25.7,0000.0,0006.98,0004.67,0004.43
2022-09-10 14:16:00,,0832.7,5.00,0.00,27.9,26.1,00.0,36.8,29.7,25.7,0000.0,0007.20,0004.74,0004.48
2022-09-10 14:17:00,,0832.7,5.00,0.00,27.9,26.1,00.0,36.7,29.7,25.6,0000.0,0007.25,0004.77,0004.52
2022-09-10 14:18:00,,0832.7,5.00,0.00,27.9,26.1,00.0,36.7,29.7,25.7,0000.0,0007.29,0004.80,0004.57
2022-09-10 14:19:00,,0832.7,5.00,0.00,27.9,26.1,00.0,36.7,29.7,25.7,0000.0,0007.39,0004.87,0004.64
2022-09-10 14:20:00,,0832.7,4.98,0.00,27.9,26.1,00.0,36.7,29.7,25.7,0000.0,0007.40,0004.92,0004.71
2022-09-10 14:21:00,,0832.7,4.99,0.00,27.9,26.0,00.0,36.7,29.6,25.7,0000.0,0007.48,0004.99,0004.78
2022-09-10 14:22:00,,0832.7,5.01,0.00,27.8,25.9,00.0,36.7,29.6,25.7,0000.0,0007.57,0005.10,0004.88
2022-09-10 14:23:00,,0832.8,5.00,0.00,27.8,25.8,00.0,36.7,29.6,25.6,0000.0,0007.61,0005.19,0004.98
2022-09-10 14:24:00,,0832.8,5.00,0.00,27.8,25.7,00.0,36.6,29.5,25.7,0000.0,0007.66,0005.27,0005.06
2022-09-10 14:25:00,,0832.8,4.99,0.00,27.7,25.7,00.0,36.6,29.5,25.8,0000.0,0007.81,0005.38,0005.15
2022-09-10 14:26:00,,0832.8,4.99,0.00,27.7,25.6,00.0,36.6,29.5,25.8,0000.0,0007.87,0005.43,0005.21
2022-09-10 14:27:00,,0832.8,5.00,0.00,27.7,25.6,00.0,36.6,29.4,25.9,0000.0,0007.93,0005.47,0005.26
2022-09-10 14:28:00,,0832.8,5.00,0.00,27.7,25.6,00.0,36.6,29.4,25.9,0000.0,0007.97,0005.51,0005.30
2022-09-10 14:29:00,,0832.8,5.00,0.00,27.6,25.6,00.0,36.5,29.4,26.0,0000.0,0008.01,0005.55,0005.34
2022-09-10 14:30:00,,0832.8,5.00,0.00,27.6,25.5,00.0,36.5,29.4,26.0,0000.0,0008.00,0005.56,0005.36
2022-09-10 14:31:00,,0832.8,5.00,0.00,27.6,25.6,00.0,36.5,29.4,26.1,0000.0,0008.06,0005.60,0005.39
2022-09-10 14:32:00,,0832.7,5.01,0.00,27.6,25.6,00.0,36.5,29.4,26.1,0000.0,0008.08,0005.62,0005.41
2022-09-10 14:33:00,,0832.8,5.00,0.00,27.6,25.5,00.0,36.4,29.3,26.1,0000.0,0008.05,0005.60,0005.40
2022-09-10 14:34:00,,0832.7,4.99,0.00,27.5,25.5,00.0,36.4,29.3,26.2,0000.0,0008.00,0005.56,0005.37
2022-09-10 14:35:00,,0832.8,5.00,0.00,27.5,25.5,00.0,36.4,29.3,26.2,0000.0,0007.98,0005.54,0005.35
2022-09-10 14:36:00,,0832.8,5.00,0.00,27.5,25.4,00.0,36.4,29.3,26.3,0000.0,0007.94,0005.52,0005.32
2022-09-10 14:37:00,,0832.8,5.00,0.00,27.5,25.4,00.0,36.4,29.3,26.3,0000.0,0007.89,0005.47,0005.28
2022-09-10 14:38:00,,0832.8,5.00,0.00,27.4,25.5,00.0,36.3,29.2,26.3,0000.0,0007.84,0005.44,0005.25
2022-09-10 14:39:00,,0832.8,5.00,0.00,27.4,25.5,00.0,36.3,29.2,26.4,0000.0,0007.87,0005.45,0005.25
2022-09-10 14:40:00,,0832.8,5.00,0.00,27.4,25.5,00.0,36.3,29.2,26.5,0000.0,0007.87,0005.44,0005.23
2022-09-10 14:41:00,,0832.8,5.00,0.00,27.4,25.6,00.0,36.3,29.2,26.5,0000.0,0007.84,0005.41,0005.20
2022-09-10 14:42:00,,0832.8,5.00,0.00,27.4,25.7,00.0,36.3,29.3,26.5,0000.0,0007.79,0005.36,0005.15
2022-09-10 14:43:00,,0832.8,5.01,0.00,27.4,25.7,00.0,36.3,29.3,26.5,0000.0,0007.74,0005.32,0005.11
2022-09-10 14:44:00,,0832.9,4.99,0.00,27.4,25.6,00.0,36.2,29.2,26.6,0000.0,0007.70,0005.28,0005.07
2022-09-10 14:45:00,,0832.9,5.01,0.00,27.4,25.6,00.0,36.2,29.2,26.6,0000.0,0007.60,0005.22,0005.02
2022-09-10 14:46:00,,0832.9,5.01,0.00,27.4,25.7,00.0,36.2,29.2,26.5,0000.0,0007.52,0005.15,0004.96
2022-09-10 14:47:00,,0832.8,4.99,0.00,27.4,25.7,00.0,36.2,29.3,26.5,0000.0,0007.45,0005.06,0004.87
2022-09-10 14:48:00,,0832.8,5.00,0.00,27.4,25.7,00.0,36.2,29.2,26.5,0000.0,0007.41,0005.01,0004.81
2022-09-10 14:49:00,,0832.8,5.01,0.00,27.4,25.8,00.0,36.2,29.2,26.6,0000.0,0007.44,0005.03,0004.81
2022-09-10 14:50:00,,0832.8,4.99,0.00,27.4,25.8,00.0,36.2,29.3,27.5,0000.0,0007.54,0005.12,0004.91
2022-09-10 14:51:00,,0832.8,5.01,0.00,27.4,25.8,00.0,36.2,29.3,27.3,0000.0,0007.60,0005.15,0004.91
2022-09-10 14:52:00,,0832.8,4.99,0.00,27.4,25.9,00.0,36.2,29.3,26.8,0000.0,0007.71,0005.20,0004.95
2022-09-10 14:53:00,,0832.8,5.01,0.00,27.4,25.9,00.0,36.2,29.3,26.8,0000.0,0007.85,0005.30,0005.03
2022-09-10 14:54:00,,0832.8,4.99,0.00,27.4,25.9,00.0,36.2,29.3,26.8,0000.0,0008.20,0005.49,0005.17
2022-09-10 14:55:00,,0832.8,5.01,0.00,27.4,25.8,00.0,36.2,29.3,26.8,0000.0,0008.71,0005.77,0005.41
2022-09-10 14:56:00,,0832.9,4.99,0.00,27.4,25.9,00.0,36.2,29.3,26.8,0000.0,0009.19,0006.14,0005.73
2022-09-10 14:57:00,,0832.9,5.00,0.00,27.4,25.9,00.0,36.2,29.3,26.7,0003.1,0009.85,0006.63,0006.14
2022-09-10 14:58:00,,0833.1,5.01,0.00,27.5,25.9,00.0,36.2,29.3,26.8,0002.5,0010.45,0007.11,0006.59
2022-09-10 14:59:00,,0833.0,4.99,0.00,27.5,25.9,00.0,36.2,29.3,26.8,0002.2,0011.13,0007.62,0007.03
